Hourly Weather Roundup
Issued by NWS Central Illinois

Home | Current Version | Previous Version | Text Only | Print | Product List | Glossary On
Versions: 1 2 3 4 5 6 7 8 9 10 11 12 13 14 15 16 17 18 19 20 21 22 23 24 25 26 27 28 29 30 31 32 33 34 35 36 37 38 39 40 41 42 43 44 45 46 47 48 49 50
000
NZUS43 KILX 310110
HWRILX

Area Weather Roundup
National Weather Service Lincoln IL
800 PM CDT THU MAR 30 2017

NOTE:  "FAIR" indicates few or no clouds below 12,000 feet, with
       no sigificant weather and/or obstructions to visibility.


CITY           SKY/WX    TMP DP  RH WIND       PRES   REMARKS
Bloomington    FOG       54  54 100 VRB5      29.55R VSB 1/4
Champaign      LGT RAIN  56  54  93 SE16      29.55R
Danville       CLOUDY    54  53  97 SE10      29.54R
Decatur        CLOUDY    57  55  93 SW10      29.55R
Effingham      CLOUDY    57  57  99 CALM      29.59R
Flora          CLOUDY    60  57  89 NW7       29.58R
Galesburg      LGT RAIN  44  44 100 N12       29.58R
Jacksonville   LGT RAIN  51  49  93 W13G21    29.58R
Lacon          CLOUDY    46  45  99 NE8       29.57R
Lawrenceville  PTCLDY    59  57  93 SW7       29.56R
Litchfield     PTCLDY    55  51  86 W7        29.57R
$$


CITY           SKY/WX    TMP DP  RH WIND       PRES   REMARKS
Lincoln        CLOUDY    57  56  96 S5        29.53S
Macomb         LGT RAIN  45  45  99 N12       29.61R
Mattoon        LGT RAIN  57  56  96 SE3       29.55F
Mt Carmel AP   CLEAR     59  56  89 S9        29.55S
Olney-Noble AP LGT RAIN  59  59 100 N7        29.56S
Paris AP       CLOUDY    55  55  99 SE7       29.58S
Peoria         CLOUDY    49  49 100 NE9       29.55S FOG
Pontiac        CLOUDY    49  49  99 N17       29.56R FOG
Rantoul        CLOUDY    57  56  96 SE12      29.54R
Robinson       MOCLDY    57  56  96 SE8       29.57R
Springfield    CLOUDY    54  50  86 W18G26    29.55R
Taylorville    CLOUDY    55  52  90 W9        29.57R
$$

...REGIONAL REPORTS...


CITY           SKY/WX    TMP DP  RH WIND       PRES   REMARKS
Chicago O`Hare LGT RAIN  41  39  93 NE15      29.62F FOG     WCI  33
Kankakee       CLOUDY    50  49  97 E14       29.53F FOG
Moline         CLOUDY    43  40  89 NE12      29.60S
Mount Sterling DRIZZLE   47  46  98 N9        29.59R
Mount Vernon   LGT RAIN  58  55  90 W5        29.59R
Pittsfield     CLOUDY    51  50  95 W8        29.60R
Quincy         LGT RAIN  47  46  97 N12       29.60R
Rockford       CLOUDY    41  37  86 NE21G28   29.67R WCI  32
$$


CITY           SKY/WX    TMP DP  RH WIND       PRES   REMARKS
Burlington     CLOUDY    44  44 100 N10       29.62R
Cedar Rapids   LGT RAIN  41  39  93 N13       29.66R WCI  34
Des Moines     DRIZZLE   42  40  92 N10       29.72R FOG
Kirksville     CLOUDY    45  44  97 N14       29.66R
Ottumwa        CLOUDY    42  41  96 N12       29.66S
St Louis       PTCLDY    55  43  63 W12       29.60R
$$


CITY           SKY/WX    TMP DP  RH WIND       PRES   REMARKS
Terre Haute    CLOUDY    57  55  93 NE3       29.58S
Evansville     RAIN      61  56  83 SW10G22   29.59R
Indianapolis   LGT RAIN  57  55  93 S6        29.63R
Lafayette      CLOUDY    55  55 100 SE6       29.57F
Madison        CLOUDY    40  36  86 NE13      29.72F WCI  32
Milwaukee      CLOUDY    39  35  86 NE16      29.72S WCI  30
$$






USA.gov is the U.S. government's official web portal to all federal, state and local government web resources and services.